Location: Avon School (historical)
(37.7514°N, 90.2201°W)
Time: 01:26:54
(UTC+00:00)

Explorer 7 - Pass Details

Date: 17 December 2025
Orbit: 433 x 550 km, 50.2° (Epoch: 13 January)

Event Time Altitude Azimuth Distance (km) Brightness Sun altitude
Rises 23:23:24 0° 288° (WNW) 2,478 11.0 -7.8°
Reaches altitude 10° 23:26:32 10° 318° (NW) 1,580 9.4 -8.4°
Maximum altitude 23:28:17 13° 347° (NNW) 1,394 8.8 -8.7°
Drops below altitude 10° 23:30:00 10° 17° (NNE) 1,560 8.8 -9.0°
Enters shadow 23:30:55 - 29° (NNE) 1,765 8.9 -9.2°
